Regional Weather Roundup
Issued by NWS

Home | Current Version | Previous Version | Graphics & Text | Print | Product List | Glossary On
Versions: 1 2 3 4 5 6 7 8 9 10 11 12 13 14 15 16 17 18 19 20 21 22 23 24 25 26 27 28 29 30 31 32 33 34 35 36 37 38 39 40 41 42 43 44 45 46 47 48 49 50
000
ASUS43 KIND 251209
RWRIN

WEATHER ROUNDUP FOR INDIANA
NATIONAL WEATHER SERVICE INDIANAPOLIS IN
800 AM EDT MON JUL 25 2016

NOTE: "FAIR" INDICATES FEW OR NO CLOUDS BELOW 12,000 FEET WITH NO
SIGNIFICANT WEATHER AND/OR OBSTRUCTIONS TO VISIBILITY.

* - STATION DOES NOT REPORT WEATHER SUCH AS PRECIPITATION OR FOG.

+ - STATION NOT QUALITY CONTROLLED BY THE NATIONAL WEATHER SERVICE.
    USE DATA WITH CAUTION...ESPECIALLY DEWPOINT AND RELATIVE
    HUMIDITY OBSERVATIONS.

INZ001>003-010>013-019-020-251300-
NORTHWEST INDIANA

CITY           SKY/WX    TMP DP  RH WIND       PRES   REMARKS
GARY /AIRPORT/ PTSUNNY   75 N/A N/A W9        29.97R
KNOX *+        CLOUDY    68  66  94 CALM      29.98R
LA PORTE +     CLOUDY    73  73 100 CALM      29.98S
6HR MIN TEMP:  71; 6HR MAX TEMP:  73;

MICHIGAN CITY+ CLOUDY    73  68  83 NW6       29.97F
MONTICELLO +   CLOUDY    70  65  83 SW5       30.00R
6HR MIN TEMP:  69; 6HR MAX TEMP:  71;

RENSSELAER +   CLOUDY    70  68  94 S3        29.99R
VALPARAISO     CLOUDY    73  67  81 W5        29.98R
6HR MIN TEMP:  69; 6HR MAX TEMP:  73; 6HR PCP: TRACE;


$$

LMZ046-743>745-251300-
SOUTHERN LAKE MICHIGAN

STATION/POSITION TIME  TEMP    WIND        PRES    WAVE
                       AIR SEA DIR/SP/G            HT
                 (UTC) (F)     (DEG/KT/KT) (MB)    (FT)
BURNS HARBOR     1102   74     260/ 11/ 14 1014.9R
MICHIGAN CITY    1100   74     230/ 12/ 13   N/A
5NW MICH CITY    1200   74 74  300/  6/ 10   N/A     2

$$

INZ004-005-014>016-021>024-251300-
NORTH CENTRAL INDIANA

CITY           SKY/WX    TMP DP  RH WIND       PRES   REMARKS
ELKHART        CLOUDY    72  72 100 SW3       29.98R
GOSHEN         PTSUNNY   71  67  87 SW5       29.99R
6HR MIN TEMP:  70; 6HR MAX TEMP:  72;

LOGANSPORT +   PTSUNNY   70  68  94 W3        30.01S
PERU/GRISSOM   MOSUNNY   70  69  98 SW3       30.00R
6HR MIN TEMP:  69; 6HR MAX TEMP:  71;

ROCHESTER +    CLOUDY    72  70  94 CALM      30.00S
SOUTH BEND     CLOUDY    72  67  84 W5        29.97S
6HR MIN TEMP:  69; 6HR MAX TEMP:  72; 6HR PCP:  0.02;

WARSAW +       CLOUDY    70  68  94 CALM      29.99F

$$

INZ006>009-017-018-025>027-251300-
NORTHEAST INDIANA

CITY           SKY/WX    TMP DP  RH WIND       PRES   REMARKS
ANGOLA *+        N/A     72  64  78 W5        29.98S
AUBURN +       CLOUDY    72  64  78 W3        29.99F
FORT WAYNE     CLOUDY    72  68  87 CALM      29.99F
6HR MIN TEMP:  70; 6HR MAX TEMP:  76; 6HR PCP: TRACE;

HUNTINGTON +   CLOUDY   N/A N/A N/A CALM      29.99F

$$

INZ028-029-035-036-043>045-051>053-251300-
WEST CENTRAL INDIANA

CITY           SKY/WX    TMP DP  RH WIND       PRES   REMARKS
CRAWFORDSVL +  CLOUDY    69  69 100 CALM      30.02S
6HR MIN TEMP:  68; 6HR MAX TEMP:  70;

GREENCASTLE +  CLOUDY    70  70 100 CALM      30.01S
LAFAYETTE      CLOUDY    70  70 100 CALM      30.00S
6HR MIN TEMP:  69; 6HR MAX TEMP:  71; 6HR PCP:  0.20;

TERRE HAUTE    CLOUDY    72  68  87 SW5       30.00S
6HR MIN TEMP:  71; 6HR MAX TEMP:  74;


$$

INZ030>032-037>040-046>048-054>057-064-065-251300-
CENTRAL INDIANA

CITY           SKY/WX    TMP DP  RH WIND       PRES   REMARKS
COLUMBUS       SUNNY     73  73 100 NW6       30.02R FOG
INDIANAPOLIS   CLOUDY    74  69  85 VRB3      29.99F
6HR MIN TEMP:  72; 6HR MAX TEMP:  77;

-EAGLE CREEK   CLOUDY    74  69  85 NW12      30.01R
6HR MIN TEMP:  73; 6HR MAX TEMP:  77;

KOKOMO *+      CLOUDY    72  64  78 W6        30.02R
6HR MIN TEMP:  72; 6HR MAX TEMP:  72;

MARION +       CLOUDY    70  67  89 CALM      30.03R
MT COMFORT *+  CLOUDY    72  68  88 SW6       30.00S
SHELBYVILLE    CLOUDY    75  69  81 SW5       30.00S
6HR MIN TEMP:  74; 6HR MAX TEMP:  81;

ZIONSVILLE +   CLOUDY    71  68  89 NW5       30.03R
6HR MIN TEMP:  69; 6HR MAX TEMP:  72;


$$

INZ033-034-041-042-049-050-058-059-251300-
EAST CENTRAL INDIANA

CITY           SKY/WX    TMP DP  RH WIND       PRES   REMARKS
MUNCIE         CLOUDY    74  68  81 N6        30.01R
6HR MIN TEMP:  74; 6HR MAX TEMP:  80;


$$

INZ060-061-067>069-081>083-085>088-251300-
SOUTHWEST INDIANA

CITY           SKY/WX    TMP DP  RH WIND       PRES   REMARKS
EVANSVILLE     CLOUDY    76  70  82 CALM      30.00S
6HR MIN TEMP:  75; 6HR MAX TEMP:  81;

HUNTINGBURG *+ CLOUDY    75  72  88 CALM      30.00S
6HR MIN TEMP:  75; 6HR MAX TEMP:  79;

WASHINGTON +   CLOUDY    72  72 100 MISG      29.99F
6HR MIN TEMP:  71; 6HR MAX TEMP:  78;


$$

INZ062-063-066-070>080-084-089>092-251300-
SOUTH CENTRAL AND SOUTHEAST INDIANA

CITY           SKY/WX    TMP DP  RH WIND       PRES   REMARKS
BLOOMINGTON    PTSUNNY   73  70  90 CALM      30.01R
6HR MIN TEMP:  72; 6HR MAX TEMP:  79;

MADISON *+     PTSUNNY   77  73  88 CALM      30.03S

$$





USA.gov is the U.S. government's official web portal to all federal, state and local government web resources and services.